CW9849 Weather Reports


Display with metric or nautical units.
time (UTC)temp
F
wind
direction
speed
MPH
gust
MPH
rain 1hr
in
rain 24hr
in
rain mn
in
humidity
%
barometer
mb
20260901031523 58 236 5.0 7.0 0.00 0.00 0.00 87 1022.2
20260901030018 58 243 5.0 8.0 0.00 0.00 0.00 86 1022.3
20260901024517 58 229 5.0 7.0 0.00 0.00 0.00 87 1022.3
20260901023015 59 250 4.0 6.0 0.00 0.00 0.00 86 1022.2
20260901021523 59 231 4.0 7.0 0.00 0.00 0.00 85 1022.4
20260901020015 59 238 2.0 5.0 0.00 0.00 0.00 84 1022.4
20260901014511 59 274 3.0 6.0 0.00 0.01 0.00 83 1022.5
20260901013011 59 283 4.0 6.0 0.00 0.01 0.00 83 1022.4
20260901011512 58 276 4.0 6.0 0.00 0.01 0.00 83 1022.5
20260901010027 59 269 4.0 6.0 0.00 0.01 0.00 82 1022.7
20260901004508 59 283 4.0 6.0 0.00 0.02 0.00 82 1022.7
20260901003005 59 281 5.0 7.0 0.00 0.02 0.00 82 1022.7
20260901001505 59 286 4.0 8.0 0.00 0.02 0.00 80 1022.7
20260901000004 59 310 6.0 9.0 0.00 0.02 0.00 80 1022.7
20260831234502 59 309 6.0 8.0 0.00 0.02 0.00 82 1022.7
20260831233059 60 298 5.0 8.0 0.00 0.02 0.00 82 1022.6
20260831231612 60 295 4.0 7.0 0.00 0.02 0.00 82 1022.6
20260831230054 60 285 4.0 7.0 0.00 0.02 0.00 82 1022.7
20260831224553 60 274 4.0 7.0 0.00 0.02 0.02 82 1022.7
20260831223100 60 290 4.0 7.0 0.00 0.02 0.02 81 1022.5
20260831221551 60 271 4.0 7.0 0.00 0.02 0.02 80 1022.5
20260831220053 61 276 4.0 6.0 0.00 0.02 0.02 80 1022.6
20260831214549 61 262 7.0 11.0 0.00 0.02 0.02 78 1022.6
20260831213051 61 281 7.0 10.0 0.00 0.02 0.02 79 1022.5
20260831211557 61 288 8.0 11.0 0.00 0.02 0.02 79 1022.6
20260831210048 61 269 5.0 8.0 0.00 0.02 0.02 79 1022.6
20260831204546 61 236 7.0 11.0 0.00 0.02 0.02 79 1022.6
20260831203046 61 272 5.0 9.0 0.00 0.02 0.02 80 1022.5
20260831201555 61 269 5.0 9.0 0.00 0.02 0.02 80 1022.5
20260831200045 61 269 5.0 10.0 0.00 0.02 0.02 80 1022.5
20260831194627 61 276 5.0 10.0 0.00 0.02 0.02 79 1022.2
20260831193041 61 271 8.0 11.0 0.00 0.02 0.02 78 1022.2
20260831191540 62 278 7.0 12.0 0.00 0.02 0.02 77 1022.2
20260831190042 62 269 9.0 14.0 0.00 0.02 0.02 76 1022.1
20260831184541 63 288 8.0 12.0 0.00 0.02 0.02 76 1022.0
20260831183036 63 257 6.0 12.0 0.00 0.02 0.02 76 1021.8
20260831181540 63 271 8.0 13.0 0.00 0.02 0.02 76 1021.8
20260831180035 63 264 8.0 13.0 0.00 0.02 0.02 73 1021.6
20260831174538 64 271 8.0 12.0 0.00 0.02 0.02 73 1021.5
20260831173030 65 283 10.0 14.0 0.00 0.02 0.02 71 1021.5
20260831171535 66 300 9.0 15.0 0.00 0.02 0.02 69 1021.5
20260831170031 64 293 9.0 13.0 0.00 0.02 0.02 74 1021.4
20260831164529 63 285 9.0 15.0 0.00 0.03 0.02 73 1021.5
20260831163030 64 278 8.0 14.0 0.00 0.03 0.02 72 1021.4
20260831161526 65 283 10.0 15.0 0.00 0.03 0.02 68 1021.3
20260831160026 65 265 10.0 15.0 0.00 0.03 0.02 66 1021.2
20260831154531 67 313 8.0 14.0 0.00 0.03 0.02 63 1021.1
20260831153034 66 302 11.0 16.0 0.00 0.03 0.02 62 1021.0
20260831151522 67 283 10.0 18.0 0.00 0.03 0.02 61 1021.1
20260831150022 66 277 9.0 16.0 0.00 0.03 0.02 64 1021.0
20260831144520 67 305 11.0 18.0 0.00 0.03 0.02 64 1020.9
20260831143020 66 298 11.0 18.0 0.00 0.03 0.02 62 1021.0
20260831141518 67 297 11.0 19.0 0.00 0.03 0.02 61 1021.0
20260831140019 67 293 10.0 18.0 0.00 0.03 0.02 62 1020.9
20260831134516 68 295 13.0 21.0 0.00 0.03 0.02 63 1020.8
20260831133013 68 262 12.0 19.0 0.00 0.03 0.02 59 1020.7
20260831131516 67 281 12.0 18.0 0.00 0.03 0.02 64 1020.5
20260831130011 67 293 10.0 18.0 0.00 0.03 0.02 63 1020.4
20260831124514 68 297 14.0 19.0 0.00 0.03 0.02 62 1020.3
20260831123008 68 291 13.0 20.0 0.00 0.03 0.02 61 1020.4
20260831121506 68 6 11.0 19.0 0.00 0.03 0.02 63 1020.1
20260831120006 68 283 10.0 20.0 0.00 0.03 0.02 66 1020.0
20260831114505 66 308 10.0 20.0 0.00 0.03 0.02 67 1020.0
20260831113108 67 327 11.0 18.0 0.00 0.03 0.02 68 1019.7
20260831111600 67 293 10.0 20.0 0.00 0.03 0.02 67 1019.4
20260831110055 67 309 11.0 19.0 0.00 0.03 0.02 66 1019.2
20260831104552 67 333 8.0 17.0 0.00 0.03 0.02 65 1019.1
20260831103051 67 348 9.0 16.0 0.00 0.03 0.02 68 1018.7
20260831101549 65 288 10.0 19.0 0.00 0.03 0.02 72 1018.7
20260831100111 65 330 8.0 16.0 0.00 0.03 0.02 71 1018.6
20260831094545 66 293 11.0 20.0 0.00 0.03 0.02 68 1018.3
20260831093045 67 318 11.0 22.0 0.00 0.03 0.02 67 1018.2
20260831091549 65 315 11.0 19.0 0.00 0.03 0.02 73 1018.0
20260831090038 66 300 12.0 20.0 0.00 0.03 0.02 71 1017.7
20260831084540 65 317 12.0 21.0 0.00 0.06 0.02 72 1017.5
20260831083030 65 295 14.0 26.0 0.00 0.06 0.02 72 1017.4
20260831081527 64 320 14.0 24.0 0.00 0.06 0.02 75 1017.0
20260831080027 63 288 12.0 22.0 0.00 0.06 0.02 77 1016.8
20260831074524 64 295 11.0 20.0 0.00 0.06 0.02 77 1016.7
20260831073033 63 295 14.0 20.0 0.00 0.06 0.02 79 1016.3
20260831071520 62 297 11.0 24.0 0.00 0.06 0.02 79 1016.2
20260831070017 62 295 11.0 25.0 0.00 0.06 0.02 80 1015.9
20260831064519 62 295 16.0 24.0 0.00 0.06 0.02 79 1015.7
20260831063020 62 307 13.0 21.0 0.00 0.06 0.02 80 1015.4
20260831061507 62 307 13.0 25.0 0.00 0.06 0.02 81 1015.2
20260831060005 62 284 21.0 30.0 0.00 0.06 0.02 80 1014.8
20260831054502 62 293 18.0 29.0 0.00 0.06 0.02 80 1014.5
20260831053117 62 312 19.0 29.0 0.00 0.06 0.02 82 1014.1
20260831051558 62 304 18.0 28.0 0.00 0.06 0.02 83 1014.0
20260831050110 61 288 18.0 29.0 0.00 0.06 0.02 85 1013.6
20260831044554 62 288 12.0 24.0 0.00 0.06 0.02 80 1013.4
20260831043053 62 304 12.0 20.0 0.00 0.06 0.02 79 1013.2
20260831041557 62 309 12.0 21.0 0.00 0.06 0.02 80 1013.1
20260831040048 62 304 14.0 21.0 0.00 0.06 0.02 79 1012.8
20260831034547 62 295 12.0 19.0 0.00 0.06 0.02 79 1012.7
20260831033104 62 302 13.0 19.0 0.00 0.06 0.02 79 1012.5